Location: ???????????
(54.9945°N, 39.1473°E)
Time: 12:42:43
(UTC+00:00)

Daily predictions for brighter satellites

Satellite Brightness Start Highest point End
(mag) Time Altitude Azimuth Time Altitude Azimuth Time Altitude Azimuth
Cosmos 1697 Rocket 3.7 18:27:47 10° NNW 18:33:04 39° NE 18:38:18 10° ESE
Meteor 2-9 Rocket 4.4 18:27:18 10° NNW 18:33:11 87° WSW 18:39:04 10° S
NOSS 2-1 (E) 3.7 18:30:08 10° NW 18:33:45 61° SW 18:38:39 10° SE
Cosmos 1980 Rocket 3.8 18:36:58 10° NNW 18:41:57 29° NE 18:46:55 10° E
MetOp-A 4.2 18:37:20 10° SSE 18:42:01 61° ENE 18:47:04 10° N
Cosmos 44 Rocket 3.9 18:37:23 10° NW 18:42:19 54° NE 18:47:06 10° ESE
Lacrosse 4 Rocket 1.4 18:39:37 10° NW 18:43:43 89° ENE 18:47:52 10° SE
Meteor 2-10 4.4 18:39:08 10° NNW 18:44:40 73° W 18:49:58 10° S
Cosmos 1048 Rocket 4.4 18:40:25 10° SW 18:45:32 70° WNW 18:50:40 10° NNE
ARIANE 5 R/B 4.0 18:42:30 10° ESE 18:46:09 27° ENE 18:49:47 10° N
NOSS 2-1 (D) 4.0 18:43:04 10° WNW 18:46:37 47° SW 18:51:21 10° SSE
Nadezhda 4 Rocket 4.1 18:40:46 10° S 18:46:52 63° E 18:53:05 10° NNE
Cosmos 1992 Rocket 4.1 18:45:01 10° NNW 18:50:17 83° ENE 18:55:30 10° SSE
Cosmos 1151 Rocket 3.3 18:46:18 10° S 18:50:30 50° E 18:54:42 10° NNE
Cosmos 1302 Rocket 4.5 18:46:52 10° NNW 18:51:58 57° WSW 18:57:03 10° S
Meteor 2-4 Rocket 4.4 18:46:48 10° SSE 18:52:17 41° E 18:57:47 10° NNE
Meteor 1-27 Rocket 3.7 18:47:18 10° S 18:52:47 76° E 18:58:23 10° NNE
Meteor 2-17 Rocket 4.5 18:47:25 10° S 18:53:23 67° E 18:59:25 10° NNE
H-2A R/B 4.3 18:51:09 10° ESE 18:54:27 23° ENE 18:57:49 10° N
USA 245 4.1 18:53:31 10° SSW 18:55:32 24° W 18:57:45 10° NW
Cosmos 1328 Rocket 4.5 18:59:48 10° SSE 19:03:39 32° E 19:07:29 10° NNE
Lacrosse 5 rocket 1.7 18:59:29 10° WNW 19:03:44 68° N 19:07:52 10° E
Landsat 5 3.5 19:00:37 10° NNE 19:04:18 50° E 19:08:01 10° S
SL-8 R/B 4.2 19:00:59 10° WSW 19:05:22 38° S 19:09:47 10° ESE
Cosmos 1340 Rocket 2.8 19:04:38 10° SSW 19:08:39 88° WNW 19:12:39 10° NNE
USA 281 3.4 19:02:08 10° SSE 19:08:45 77° WSW 19:15:24 10° NNW
Terra 2.9 19:04:45 10° SSW 19:09:11 41° W 19:13:40 10° NNW
NOSS 3-4 (A) 4.0 19:03:36 10° NW 19:10:04 70° NNE 19:17:36 10° ESE
NOSS 3-4 (C) 4.0 19:03:42 10° NW 19:10:10 70° NNE 19:17:42 10° ESE
Spot 1 4.0 19:08:12 10° NNE 19:12:17 65° ESE 19:16:29 10° S
Spot 2 Rocket 4.4 19:09:59 10° S 19:14:46 43° W 19:19:37 10° NNW
IRIDIUM 104 4.4 19:11:58 10° N 19:17:14 77° E 19:22:20 11° S
SL-16 R/B 4.4 19:14:04 10° NNW 19:18:25 22° NNE 19:22:46 10° ENE
Cosmos 220 Rocket 4.1 19:14:13 10° S 19:18:27 56° ESE 19:22:40 10° NE
Cosmos 1470 Rocket 4.0 19:14:05 10° N 19:18:27 50° ENE 19:22:18 13° SSE
Cosmos 1340 3.9 19:17:04 10° NNW 19:20:07 31° W 19:23:09 10° SSW
Cosmos 1633 Rocket 3.1 19:19:13 10° N 19:23:40 81° ENE 19:27:38 13° SSE
Cosmos 1833 Rocket 3.7 19:19:23 11° SSE 19:23:41 27° ESE 19:28:21 10° NE
MOS 1 Rocket 4.5 19:19:53 10° S 19:24:55 46° W 19:30:07 10° NNW
Sich 1 4.5 19:20:59 10° NNW 19:24:57 34° W 19:28:53 10° SSW
Cosmos 2026 Rocket 4.1 19:19:38 10° S 19:25:50 66° E 19:31:59 10° NNE
IRIDIUM 114 4.4 19:21:07 10° N 19:26:23 88° E 19:31:28 11° S
Cosmos 1666 Rocket 3.6 19:23:15 10° NNW 19:27:35 79° W 19:31:33 12° S
Cosmos 1603 4.3 19:23:09 10° SW 19:28:47 62° NW 19:34:30 10° NNE
NOSS 3-3 (C) 4.3 19:23:43 10° S 19:28:53 41° ESE 19:34:53 10° NE
Cosmos 1656 4.0 19:25:56 10° NW 19:31:16 56° WSW 19:36:08 13° S
Cosmos 2360 4.3 19:26:08 10° NW 19:31:54 83° WSW 19:36:58 13° SSE
Cosmos 2082 Rocket 4.2 19:31:25 10° ESE 19:32:57 11° E 19:34:29 10° ENE
IRIDIUM 103 4.4 19:30:17 10° N 19:35:32 80° W 19:40:36 11° S
Ariane Rocket 4.5 19:33:37 10° SSW 19:38:05 30° W 19:42:34 10° NNW
Cosmos 1805 4.3 19:35:32 10° NNW 19:38:59 37° W 19:42:26 10° SSW
Cosmos 1766 3.1 19:35:50 10° N 19:39:36 78° ENE 19:42:33 16° SSE
Cosmos 1975 3.4 19:35:50 10° NNW 19:39:40 50° W 19:43:17 11° S
USA 234 3.5 19:33:20 10° E 19:39:53 76° N 19:46:26 10° W
NOSS 8 (A) 4.2 19:38:46 10° SW 19:42:23 84° SE 19:45:22 10° NE
Cosmos 1818 3.7 19:37:44 10° SSW 19:43:03 55° SE 19:48:25 10° NE
Cosmos 1933 Rocket 4.1 19:39:15 10° N 19:43:30 48° ENE 19:46:57 15° SE
Cosmos 1763 Rocket 4.4 19:44:06 10° NNW 19:49:11 43° NE 19:54:14 10° SE
Cosmos 1626 1.7 19:48:38 14° SSW 19:51:22 88° WNW 19:54:37 10° NNE
Cosmos 1470 3.0 19:48:11 10° N 19:51:51 53° ENE 19:54:29 17° SSE
Spot 4 4.3 19:48:04 14° SE 19:52:02 54° ENE 19:56:42 10° N
PSLV R/B 4.4 19:48:30 10° NNE 19:52:24 43° E 19:55:14 17° SSE
Cosmos 1674 3.3 19:50:55 18° SSE 19:53:05 37° E 19:56:20 10° NNE
Cosmos 1553 Rocket 4.0 19:49:18 10° N 19:55:26 85° E 20:00:36 15° SSE
ALOS 2 3.4 19:53:14 13° SE 19:56:50 42° ENE 20:01:00 10° N
GEOS 3 Rocket 3.6 19:59:37 10° NE 20:04:47 60° SE 20:09:50 10° SSW
Cosmos 614 Rocket 4.5 20:00:46 10° SW 20:05:56 63° WNW 20:11:09 10° NNE
ATLAS 2AS CENTAUR R/B 4.1 19:59:40 10° WNW 20:06:23 42° N 20:12:49 10° ENE
CZ-2C R/B 3.6 20:03:17 10° NNE 20:07:48 76° ESE 20:11:30 15° S
Cosmos 1269 Rocket 4.0 20:04:01 10° SSW 20:09:17 85° ESE 20:14:36 10° NNE
Cosmos 2322 Rocket 4.1 20:10:24 10° NNW 20:15:10 27° NNE 20:19:57 10° E
Cosmos 2251 Rocket 4.4 20:12:48 17° SSE 20:16:06 33° ESE 20:20:48 10° NE
Cosmos 1697 Rocket 2.9 20:11:47 10° NW 20:17:19 59° WSW 20:21:32 17° S
Cosmos 1092 Rocket 4.5 20:13:43 10° SSW 20:19:56 61° WNW 20:26:15 10° N
USA 59 Rocket 2.4 20:18:37 10° W 20:20:35 13° WSW 20:22:47 10° SSW
Lacrosse 4 Rocket 3.5 20:18:57 10° WNW 20:21:26 16° WSW 20:23:57 10° SSW
ARIANE 5 R/B 3.2 20:19:08 16° S 20:22:21 48° W 20:26:33 10° NNW
Cosmos 1908 3.0 20:19:43 10° N 20:23:19 79° ENE 20:25:33 22° SSE
Cosmos 44 Rocket 4.0 20:19:06 10° NW 20:23:44 41° WSW 20:26:50 18° S
Cosmos 2333 Rocket 4.3 20:19:36 10° NNW 20:24:20 26° NNE 20:29:04 10° E
Spot 2 4.4 20:22:29 18° SSE 20:26:05 83° ENE 20:31:08 10° NNW
Cosmos 1980 Rocket 2.2 20:20:55 10° NW 20:26:41 89° WSW 20:31:19 16° SSE
H-2A R/B 2.8 20:26:06 19° S 20:29:03 62° WSW 20:33:19 10° NNW
Cosmos 2266 Rocket 4.2 20:30:32 17° S 20:35:18 64° E 20:41:34 10° NNE
OPS 6432 4.1 20:34:13 10° NW 20:37:26 73° SW 20:39:16 22° SE
Lacrosse 5 rocket 1.3 20:37:58 10° WNW 20:42:10 64° SSW 20:45:41 13° SE
Cosmos 1953 4.5 20:42:03 10° NNE 20:44:53 19° ENE 20:47:40 10° ESE
Cosmos 1707 2.5 20:43:32 21° SSW 20:45:53 85° W 20:49:34 10° N
H-2A R/B 3.3 20:42:24 10° NNE 20:46:18 29° E 20:48:51 17° SE
NOSS 3-3 (A) 4.0 20:41:49 10° SW 20:47:32 84° NW 20:54:22 10° NE
Cosmos 1655 Rocket 4.3 20:43:45 18° SSE 20:48:31 59° E 20:54:48 10° NNE
Cosmos 2369 3.7 20:43:35 10° NW 20:49:20 81° WSW 20:53:50 17° SSE
Cosmos 1515 Rocket 4.0 20:45:52 14° SSW 20:49:25 57° WNW 20:53:43 10° N
BREEZE-M DEB (TANK) 3.6 20:47:32 10° WSW 20:53:30 - SE 20:48:48 20° SSW
Cosmos 1441 Rocket 3.0 20:46:07 10° NNW 20:49:41 72° WSW 20:51:43 24° S
SL-14 R/B 4.4 20:50:20 18° SE 20:52:27 31° E 20:55:51 10° NNE
Cosmos 1733 Rocket 3.5 20:48:41 10° N 20:52:58 54° ENE 20:56:04 18° SSE
Cosmos 1300 2.9 20:52:03 10° N 20:55:35 56° ENE 20:57:44 21° SSE
Cosmos 724 4.3 20:50:47 13° SSW 20:56:06 64° SE 21:01:52 10° NE
Cosmos 1869 Rocket 3.8 20:53:27 10° NNW 20:57:46 60° W 21:00:37 21° S
Cosmos 1842 3.8 20:55:45 16° SW 20:58:29 49° WNW 21:02:05 10° N
COSMOS 2406 4.0 20:56:59 19° SSE 21:00:34 37° ESE 21:05:49 10° NE
NOSS 3-4 (A) 4.3 20:54:31 10° NW 21:00:55 46° SW 21:06:30 17° S
NOSS 3-4 (C) 4.2 20:54:36 10° NW 21:01:01 47° SW 21:06:37 17° S
Cosmos 1140 Rocket 3.5 20:57:00 13° SSW 21:01:38 83° WNW 21:06:54 10° NNE
Cosmos 2228 Rocket 3.7 20:59:24 20° SSE 21:02:13 46° E 21:06:33 10° NNE
BREEZE-M DEB (TANK) 2.0 20:57:28 10° WSW 21:02:15 49° S 21:04:26 10° E
SL-16 R/B 2.8 20:58:10 10° NNW 21:03:46 56° NE 21:09:21 10° SE
Cosmos 2219 Rocket 4.2 21:01:21 10° NNW 21:06:08 27° NNE 21:10:56 10° E
Cosmos 1833 Rocket 2.9 21:01:34 10° SW 21:07:10 71° NW 21:12:49 10° NNE
Cosmos 1758 3.2 21:04:04 10° N 21:07:56 85° ENE 21:10:16 23° SSE
Cosmos 841 Rocket 3.9 21:05:43 10° NNW 21:10:55 61° ENE 21:15:53 11° SE
Meteor 1-13 Rocket 4.4 21:10:19 17° SSW 21:15:03 79° WNW 21:20:57 10° NNE
Cosmos 2082 Rocket 2.5 21:11:49 19° S 21:15:46 54° ESE 21:21:20 10° NE
GP-B 3.1 21:14:16 10° N 21:18:43 86° E 21:21:35 22° S
Cosmos 2360 Rocket 3.4 21:13:24 10° NNW 21:18:50 43° NE 21:24:13 10° ESE
NOSS 3-3 (C) 4.4 21:13:43 10° WSW 21:19:30 68° NNW 21:26:27 10° NE
USA 234 3.2 21:16:21 10° ESE 21:22:56 82° SSW 21:29:32 10° WNW
Okean 1-7 4.3 21:24:10 16° SE 21:26:59 31° E 21:30:50 10° NNE
Cosmos 1674 4.5 21:24:42 10° WSW 21:27:30 22° WNW 21:30:19 10° NNW
Cosmos 468 Rocket 4.2 21:25:01 10° NNW 21:30:13 58° WSW 21:33:48 20° S
Cosmos 1763 Rocket 4.2 21:26:00 10° NW 21:30:59 42° WSW 21:34:19 19° SSW
PSLV R/B 3.6 21:27:30 10° NNE 21:32:03 89° ESE 21:35:01 21° SSW
ALOS 2 3.8 21:30:37 17° SSW 21:33:18 31° W 21:37:13 10° NNW
Cosmos 2237 4.2 21:28:25 10° NW 21:34:13 89° ENE 21:39:39 12° SSE
Cosmos 1607 4.2 21:27:49 10° SW 21:34:20 80° NW 21:40:52 10° NE
Cosmos 540 Rocket 3.8 21:29:52 10° NW 21:34:52 50° WSW 21:38:14 20° S
Cosmos 1862 Rocket 3.6 21:33:07 22° S 21:35:52 68° E 21:40:12 10° NNE
Meteor 1-4 Rocket 4.0 21:35:10 15° SE 21:36:35 20° E 21:38:51 10° NE
Cosmos 407 Rocket 3.8 21:33:03 13° SW 21:37:45 66° WNW 21:42:58 10° NNE
Cosmos 1315 Rocket 4.4 21:35:33 14° SE 21:38:04 25° E 21:41:18 10° NE
Cosmos 1455 2.8 21:37:14 10° N 21:40:35 44° ENE 21:43:06 16° SE
Cosmos 676 Rocket 4.3 21:38:19 20° S 21:41:58 59° ESE 21:47:13 10° NNE
Orbus 7S? 2.5 21:38:57 10° WSW 21:42:26 81° SSE 21:45:07 10° ENE
Meteor 2-10 Rocket 4.2 21:37:08 10° NNW 21:42:46 51° W 21:46:49 18° SSW
Cosmos 1954 Rocket 4.1 21:40:35 19° SSW 21:44:22 71° ESE 21:49:41 10° NNE
Aureole 3 2.7 21:46:07 27° S 21:47:35 72° E 21:50:52 10° NNE
Meteor 1-21 4.3 21:44:07 19° S 21:48:20 81° ESE 21:54:09 10° NNE
Helios 1A Rocket 3.5 21:45:08 13° SE 21:48:27 48° ENE 21:52:09 10° N
Cosmos 2278 3.7 21:42:48 10° NW 21:48:31 70° WSW 21:53:17 15° SSE
Cosmos 1190 Rocket 4.0 21:45:18 17° SSW 21:49:25 86° WNW 21:54:47 10° NNE
SJ 16-02 3.6 21:47:15 10° SE 21:49:25 14° E 21:51:35 10° ENE
Cosmos 1346 Rocket 3.0 21:48:15 10° NNW 21:52:04 55° W 21:54:20 22° SSW
Cosmos 1400 Rocket 3.2 21:53:28 19° SW 21:56:10 55° WNW 22:00:05 10° N
Cosmos 2251 Rocket 4.1 21:53:11 11° SW 21:58:09 53° NW 22:03:23 10° NNE
ATLAS 2AS CENTAUR R/B 3.1 21:51:21 10° NW 21:58:20 68° NNE 22:05:01 10° ESE
Cosmos 1707 Rocket 3.8 21:56:30 19° SSW 21:59:36 65° WNW 22:04:03 10° N
Cosmos 1356 Rocket 3.4 21:56:57 21° SSW 21:59:37 85° W 22:03:49 10° NNE
Nadezhda 1 Rocket 4.2 21:53:24 10° N 21:59:51 75° ENE 22:05:37 13° SSE
Cosmos 2322 Rocket 2.3 21:54:21 10° NNW 22:00:03 82° NE 22:05:44 10° SE
BREEZE-M DEB (TANK) 3.3 21:54:52 10° WSW 22:04:23 47° S 22:07:34 10° ESE
Cosmos 2333 Rocket 2.5 22:03:50 10° NNW 22:09:35 73° NE 22:15:19 10° SE
Cosmos 1980 Rocket 3.7 22:05:51 10° NW 22:09:58 21° W 22:13:03 14° SW
Lacrosse 5 rocket 2.8 22:17:00 10° W 22:19:53 18° SW 22:20:29 18° SW
Cosmos 1953 2.4 22:17:14 10° NNW 22:21:05 59° W 22:23:38 20° S
H-2A R/B 2.9 22:17:55 10° N 22:22:09 45° WNW 22:25:39 14° SW
RESURS DK-1 2.4 22:20:18 10° NW 22:24:23 83° NE 22:28:28 10° SE
Resurs 1-4 Rocket 3.9 22:20:35 10° NE 22:24:44 23° E 22:28:52 10° SE
Cosmos 1908 Rocket 3.7 22:20:39 10° NNW 22:25:01 60° W 22:28:11 18° S
Cosmos 1782 Rocket 3.6 22:20:38 10° N 22:25:02 80° ENE 22:28:47 14° SSE
CZ-2D R/B 4.0 22:21:35 10° NE 22:25:56 23° E 22:30:13 10° SE
USA 267 3.5 22:21:12 10° ENE 22:27:35 53° SE 22:33:21 13° SW
Kosmos-1783 4.2 22:30:36 10° NW 22:33:51 83° NE 22:40:45 10° SE
Cosmos 1242 Rocket 3.0 22:34:26 17° SSE 22:36:16 37° E 22:38:58 10° NNE
SL-19 R/B 4.3 22:33:12 10° NNE 22:37:23 84° WNW 22:40:06 18° SSW
Okean 3 4.3 22:35:57 15° SW 22:38:59 40° WNW 22:42:54 10° N
SL-27 R/B 3.6 22:38:56 14° SSE 22:40:38 23° ESE 22:42:57 10° NE
Cosmos 968 Rocket 3.9 22:38:32 15° S 22:42:36 52° ESE 22:47:36 10° NE
COSMOS 2406 3.8 22:39:02 10° SW 22:44:42 57° NW 22:50:24 10° NNE
Cosmos 1709 Rocket 4.3 22:40:49 13° S 22:46:36 70° E 22:52:59 10° NNE
SL-16 R/B 2.9 22:42:32 10° NW 22:47:42 37° WSW 22:52:02 14° S
Cosmos 1850 Rocket 4.1 22:43:25 16° SSW 22:47:43 78° ESE 22:52:58 10° NNE
Cosmos 2219 Rocket 2.3 22:45:13 10° NNW 22:50:55 83° NE 22:56:36 10° SE
Okean 2 3.9 22:48:58 16° SW 22:51:56 47° WNW 22:55:49 10° N
Cosmos 2322 4.3 22:48:59 10° NNW 22:54:40 61° NE 23:00:18 10° SE
IDEFIX/ARIANE 42P 3.3 22:50:49 10° NNE 22:55:55 47° E 23:00:58 10° S
Cosmos 1741 Rocket 4.0 22:51:34 15° SSW 22:55:57 84° ESE 23:01:17 10° NNE
Cosmos 2181 Rocket 4.3 22:51:38 10° N 22:58:02 71° ENE 23:04:16 10° SSE
ADEOS II 3.7 22:54:44 10° NE 22:59:14 28° E 23:03:41 10° SSE
Cosmos 2082 Rocket 3.2 22:54:38 10° WSW 23:00:03 42° NW 23:05:30 10° NNE
Cosmos 2333 4.2 22:54:34 10° NW 23:00:16 71° WSW 23:06:00 10° SSE
H-2A R/B 4.2 22:59:02 10° NNE 23:02:53 44° E 23:06:40 10° S
Cosmos 2360 Rocket 2.4 22:57:29 10° NW 23:03:00 52° WSW 23:08:28 10° S
Okean 1-7 4.0 23:00:45 13° SW 23:04:14 37° WNW 23:08:18 10° N
USA 234 3.7 23:00:25 10° SSE 23:06:31 40° SW 23:12:37 10° WNW
Meteor 1-4 Rocket 3.4 23:07:17 13° SW 23:09:25 28° WNW 23:12:04 10° N
Cosmos 1703 Rocket 4.2 23:06:03 14° SW 23:09:43 48° WNW 23:14:05 10° N
Genesis I 3.0 23:10:08 15° SW 23:13:00 70° SE 23:16:35 10° NE
Cosmos 1315 Rocket 3.6 23:10:50 13° SW 23:14:02 40° WNW 23:17:48 10° N
Cosmos 1300 Rocket 4.0 23:10:23 10° NNW 23:14:30 44° W 23:18:11 12° SSW
Cosmos 1455 3.8 23:12:21 10° NW 23:14:46 18° W 23:16:51 12° SW
CZ-2C R/B 2.6 23:12:42 10° SSE 23:17:52 88° WSW 23:23:09 10° NNW
COSMOS 2428 3.1 23:13:35 10° NNW 23:19:17 72° NE 23:24:58 10° SE
SL-16 R/B 3.1 23:13:09 10° SE 23:19:19 64° ENE 23:25:32 10° NNW
Cosmos 2237 Rocket 3.7 23:15:51 10° NNW 23:21:15 41° NE 23:26:36 10° ESE
Helios 1A Rocket 4.3 23:20:30 12° SW 23:23:02 21° W 23:26:02 10° NW
ALOS 4.2 23:19:54 10° NE 23:23:42 24° E 23:27:28 10° SSE
Cosmos 2098 Rocket 3.8 23:19:10 10° NNW 23:24:34 77° W 23:30:50 10° S
Cosmos 2151 Rocket 3.8 23:20:32 10° N 23:25:01 73° ENE 23:29:28 10° SSE
SJ 16-02 1.3 23:23:06 12° SSW 23:27:05 87° ESE 23:31:26 10° NNE
Timation 1 Rocket 4.4 23:22:24 11° SW 23:28:10 82° NW 23:34:11 10° NE
Cosmos 405 Rocket 2.9 23:25:15 10° N 23:28:52 68° ENE 23:32:31 10° SSE
Sich 1 Rocket 3.8 23:25:03 10° N 23:29:35 75° ENE 23:34:01 10° SSE
NPP 3.8 23:24:23 10° NNE 23:29:49 79° ESE 23:35:13 10° SSW
Cosmos 2242 Rocket 3.7 23:25:40 11° SSW 23:29:53 71° WNW 23:34:26 10° N
CRYOSAT 2 4.5 23:26:25 10° N 23:31:21 84° E 23:36:15 10° S
CZ-2C R/B 3.8 23:27:04 10° NNE 23:32:49 57° E 23:38:23 10° S
Cosmos 1825 3.7 23:30:33 10° SSE 23:33:30 27° E 23:36:28 10° NNE
Okean 2 Rocket 3.1 23:32:12 10° N 23:36:38 85° ENE 23:41:03 10° SSE
Cosmos 1378 Rocket 4.0 23:34:11 10° S 23:38:23 58° E 23:42:39 10° NNE
Meteor 1-24 Rocket 4.0 23:33:30 10° S 23:39:32 83° ESE 23:45:29 10° NNE
Cosmos 1408 2.7 23:38:35 12° SW 23:41:13 42° WNW 23:44:06 10° N
NOSS 0 Rocket 4.2 23:35:52 10° NW 23:42:07 77° NE 23:48:21 10° SE
Cosmos 158 Rocket 4.1 23:37:28 10° NNW 23:42:53 79° WSW 23:48:13 10° SSE
Cosmos 2322 Rocket 3.4 23:39:07 10° NW 23:43:30 23° WSW 23:47:53 10° SSW
SL-4 R/B 3.2 23:39:55 10° SSW 23:43:37 30° SSE 23:47:30 10° E
SL-24 R/B 4.4 23:40:34 10° S 23:45:22 81° W 23:50:21 10° N
ATLAS 2AS CENTAUR R/B 3.0 23:42:35 10° NW 23:49:03 45° WSW 23:55:18 10° SSE
Okean 1 Rocket 3.2 23:45:23 10° N 23:49:44 76° ENE 23:54:03 10° SSE
Cosmos 2074 Rocket 4.2 23:44:53 10° S 23:51:05 75° E 23:57:18 10° NNE
Cosmos 2333 Rocket 3.2 23:48:40 10° NW 23:53:24 27° WSW 23:58:08 10° SSW
